Flag for Kazakhstan Weather past 2 weeks in Aqtobe, Kazakhstan

Now
0 °F

Passing clouds.


Feels Like: -8 °F
Forecast: 2 / 18 °F
Wind: 3 mph from East

Location: Aktjubinsk

Current Time: Dec 28, 2014 at 4:06:31 AM

Latest Report: Dec 28, 2014 at 3:30 AM


Visibility: N/A

Pressure: 30.42 "Hg

Humidity: 84%

Dew point: -4 °F

Location of AqtobeLocation

Historic Weather in Aqtobe — Graph

°F

Aqtobe temperature yesterday

Maximum temperature yesterday: 19 °F (at 12:00 AM)
Minimum temperature yesterday: -9 °F (at 9:30 PM)
Average temperature yesterday: 8 °F

Past Weeks' High & Low Weather Summary

 TemperatureHumidityPressure
High36 °F (Dec 22, 9:00 PM)100% (Dec 14, 9:30 AM)30.51 "Hg (Dec 14, 9:30 AM)
Low-9 °F (Dec 27, 9:30 PM)51% (Dec 13, 1:00 PM)29.39 "Hg (Dec 24, 10:30 PM)
Average21 °F89%30.10 "Hg
* Reported Dec 13 2:00 AM — Dec 28 2:30 AM, Aqtobe, Weather by CustomWeather, © 2014

Note: Actual official high and low records may vary slightly from our data, if they occured in-between our weather recording intervals... More about our weather records

Advertising

Aqtobe weather history for previous 24 hours

 ConditionsComfort  
Time TempWeatherWind HumidityBarometerVisibility
2:30 AM
Dec 28
-2 °FClear.3 mph84%30.42 "Hg10 mi
2:00 AM-2 °FClear.3 mph84%30.42 "Hg10 mi
1:30 AM-4 °FClear.3 mph92%30.42 "Hg10 mi
1:00 AM-4 °FClear.1 mph84%30.42 "Hg6 mi
12:30 AM-4 °FClear.6 mph84%30.42 "Hg6 mi
12:00 AM-4 °FClear.6 mph84%30.42 "Hg5 mi
11:30 PM
Dec 27
-4 °FClear.3 mph84%30.42 "Hg4 mi
11:00 PM-8 °FClear.3 mph84%30.39 "Hg5 mi
10:30 PM-4 °FClear.3 mph84%30.39 "Hg4 mi
10:00 PM-4 °FClear.1 mph84%30.39 "Hg4 mi
9:30 PM-9 °FClear.3 mph84%30.39 "Hg4 mi
9:00 PM-2 °FClear.3 mph84%30.39 "Hg4 mi
8:30 PM-6 °FClear.1 mph84%30.39 "Hg4 mi
8:00 PM-4 °FClear.1 mph84%30.39 "Hg5 mi
7:30 PM-2 °FClear.6 mph84%30.39 "Hg5 mi
7:00 PM0 °FIce fog.1 mph84%30.39 "Hg3 mi
6:30 PM0 °FClear.1 mph92%30.36 "Hg4 mi
6:00 PM3 °FClear.1 mph85%30.36 "Hg10 mi
5:30 PM7 °FClear.1 mph85%30.36 "Hg10 mi
5:00 PM7 °FSunny.No wind85%30.36 "Hg10 mi
4:30 PM9 °FSunny.3 mph78%30.36 "Hg10 mi
4:00 PM9 °FSunny.3 mph78%30.36 "Hg10 mi
3:30 PM9 °FSunny.6 mph78%30.36 "Hg10 mi
3:00 PM10 °FSunny.6 mph72%30.33 "Hg10 mi
2:30 PM10 °FPassing clouds.3 mph79%30.33 "HgN/A
2:00 PM12 °FSunny.1 mph73%30.30 "Hg10 mi
1:30 PM12 °FSunny.1 mph73%30.30 "Hg10 mi
1:00 PM14 °FSunny.1 mph67%30.33 "Hg10 mi
12:30 PM12 °FPassing clouds.1 mph73%30.30 "HgN/A
12:00 PM10 °FPassing clouds.1 mph79%30.30 "Hg5 mi
11:30 AM9 °FScattered clouds.1 mph78%30.30 "HgN/A
11:00 AM9 °FScattered clouds.3 mph85%30.27 "HgN/A
10:30 AM7 °FLight snow. Partly sunny.6 mph85%30.27 "Hg6 mi
10:00 AM5 °FLight snow. Broken clouds.3 mph92%30.24 "Hg5 mi
9:30 AM5 °FLight snow. Partly sunny.6 mph92%30.24 "HgN/A
8:30 AM7 °FLight snow. Passing clouds.8 mph85%30.21 "HgN/A
8:00 AM9 °FLight snow. Overcast.10 mph85%30.18 "Hg4 mi
7:30 AM9 °FLight snow. Overcast.8 mph92%30.18 "Hg4 mi
7:00 AM10 °FLight snow. Overcast.15 mph85%30.15 "Hg5 mi
6:30 AM10 °FSnow flurries. Passing clouds.10 mph85%30.15 "Hg4 mi
6:00 AM10 °FSnow flurries. Passing clouds.17 mph92%30.15 "Hg4 mi
5:30 AM12 °FSnow flurries. Passing clouds.13 mph85%30.12 "Hg3 mi
5:00 AM12 °FSnow flurries. Passing clouds.15 mph92%30.12 "Hg3 mi
4:30 AM14 °FSnow flurries. Partly cloudy.10 mph85%30.09 "Hg3 mi
4:00 AM16 °FLight snow. Overcast.17 mph86%30.07 "Hg4 mi
Weather by CustomWeather, © 2014

See weather overviewHow to use our weather pages